# Mixing ratio of CO2 (xCO2) in dry air measured onboard R/V Kaiyo of the Japan Marine Sciece and Technology Center (JAMSTEC).,,,,,,,,,,,,,,,,,,,,,,
"# Version 2.0; 29 Feb, 2008.",,,,,,,,,,,,,,,,,,,,,,
# Measured by Meteorological Research Institute. ,,,,,,,,,,,,,,,,,,,,,,
# PI : H. Y. Inoue and M. Ishii,,,,,,,,,,,,,,,,,,,,,,
# Concetrarion scale = MRI87,,,,,,,,,,,,,,,,,,,,,,
# Date and Time = UTC,,,,,,,,,,,,,,,,,,,,,,
Ship,Cruise,Serial No.,Date,,,Time,,Latitude,Longitude,xCO2_Air,F,xCO2_Sea,F,Wind_Dir,Wind_Spd,Atm_Prs,Atm_Tmp.,SST,F,SSS,F,pH2O
,,,Year,Month,Day,Hour,Min.,Deg.,Deg.,ppm,,ppm,,Deg.,m/s,hPa,deg.C,deg.C,,,,hPa
Kaiyo,9702,1,1997,1,26,8,27,7.226,170.646,364.1,2,-9.99,9,-99,-9.9,1003.4,-99.9,28.92,2,-9.999,9,39.1
Kaiyo,9702,2,1997,1,26,8,39,7.222,170.606,-9.99,9,368.51,2,-99,-9.9,1003.5,-99.9,28.95,2,-9.999,9,39.2
Kaiyo,9702,3,1997,1,26,8,52,7.218,170.566,-9.99,9,365.95,2,-99,-9.9,1003.6,-99.9,28.91,2,-9.999,9,39.1
Kaiyo,9702,4,1997,1,26,8,57,7.217,170.548,364.18,2,-9.99,9,-99,-9.9,1003.7,-99.9,28.96,2,-9.999,9,39.2
Kaiyo,9702,5,1997,1,26,9,10,7.215,170.508,-9.99,9,364.63,2,-99,-9.9,1003.9,-99.9,29.08,2,-9.999,9,39.5
Kaiyo,9702,6,1997,1,26,9,22,7.214,170.469,-9.99,9,366.74,2,-99,-9.9,1004.1,-99.9,29.11,2,-9.999,9,39.6
Kaiyo,9702,7,1997,1,26,9,28,7.214,170.451,363.27,2,-9.99,9,-99,-9.9,1004.2,-99.9,29.14,2,-9.999,9,39.6
Kaiyo,9702,8,1997,1,26,9,57,7.213,170.361,363.43,2,-9.99,9,-99,-9.9,1004.2,-99.9,29.17,2,-9.999,9,39.7
Kaiyo,9702,9,1997,1,26,10,9,7.213,170.322,-9.99,9,368.81,2,-99,-9.9,1004.3,-99.9,29.16,2,-9.999,9,39.7
Kaiyo,9702,10,1997,1,26,10,22,7.213,170.282,-9.99,9,370.32,2,-99,-9.9,1004.2,-99.9,29.18,2,-9.999,9,39.7
Kaiyo,9702,11,1997,1,26,10,27,7.214,170.264,363.35,2,-9.99,9,-99,-9.9,1004.1,-99.9,29.22,2,-9.999,9,39.8
Kaiyo,9702,12,1997,1,26,10,40,7.213,170.223,-9.99,9,370.97,2,-99,-9.9,1004.1,-99.9,28.94,2,-9.999,9,39.2
Kaiyo,9702,13,1997,1,26,10,52,7.209,170.183,-9.99,9,372.04,2,-99,-9.9,1004.1,-99.9,28.83,2,-9.999,9,38.9
Kaiyo,9702,14,1997,1,26,10,58,7.206,170.165,363.15,2,-9.99,9,-99,-9.9,1004.2,-99.9,28.82,2,-9.999,9,38.9
Kaiyo,9702,15,1997,1,26,11,27,7.193,170.077,363.56,2,-9.99,9,-99,-9.9,1004.3,-99.9,28.89,2,-9.999,9,39.1
Kaiyo,9702,16,1997,1,26,11,39,7.187,170.041,-9.99,9,369.42,2,-99,-9.9,1004.3,-99.9,28.93,2,-9.999,9,39.2
Kaiyo,9702,17,1997,1,26,11,52,7.184,170.003,-9.99,9,372,2,-99,-9.9,1004.4,-99.9,29.06,2,-9.999,9,39.4
Kaiyo,9702,18,1997,1,26,11,57,7.183,169.985,363.1,2,-9.99,9,-99,-9.9,1004.4,-99.9,29.05,2,-9.999,9,39.4
Kaiyo,9702,19,1997,1,26,12,10,7.181,169.947,-9.99,9,371.37,2,-99,-9.9,1004.4,-99.9,29.04,2,-9.999,9,39.4
Kaiyo,9702,20,1997,1,26,12,22,7.178,169.907,-9.99,9,372.44,2,-99,-9.9,1004.3,-99.9,29,2,-9.999,9,39.3
Kaiyo,9702,21,1997,1,26,12,28,7.176,169.89,363.22,2,-9.99,9,-99,-9.9,1004.2,-99.9,29,2,-9.999,9,39.3
Kaiyo,9702,22,1997,1,26,12,57,7.17,169.798,363.37,2,-9.99,9,-99,-9.9,1004.1,-99.9,28.84,2,-9.999,9,38.9
Kaiyo,9702,23,1997,1,26,13,9,7.166,169.756,-9.99,9,363.38,2,-99,-9.9,1003.9,-99.9,28.68,2,-9.999,9,38.6
Kaiyo,9702,24,1997,1,26,13,22,7.163,169.714,-9.99,9,363.52,2,-99,-9.9,1004,-99.9,28.68,2,-9.999,9,38.6
Kaiyo,9702,25,1997,1,26,13,27,7.162,169.695,362.95,2,-9.99,9,-99,-9.9,1004,-99.9,28.69,2,-9.999,9,38.6
Kaiyo,9702,26,1997,1,26,13,40,7.16,169.653,-9.99,9,364.15,2,-99,-9.9,1004,-99.9,28.69,2,-9.999,9,38.6
Kaiyo,9702,27,1997,1,26,13,52,7.158,169.61,-9.99,9,364.92,2,-99,-9.9,1003.9,-99.9,28.71,2,-9.999,9,38.7
Kaiyo,9702,28,1997,1,26,13,58,7.157,169.591,362.94,2,-9.99,9,-99,-9.9,1003.8,-99.9,28.71,2,-9.999,9,38.7
Kaiyo,9702,29,1997,1,26,14,27,7.156,169.497,363.03,2,-9.99,9,-99,-9.9,1003.6,-99.9,29.11,2,-9.999,9,39.6
Kaiyo,9702,30,1997,1,26,14,39,7.156,169.456,-9.99,9,367.77,2,-99,-9.9,1003.6,-99.9,29.16,2,-9.999,9,39.7
Kaiyo,9702,31,1997,1,26,14,52,7.156,169.415,-9.99,9,370.34,2,-99,-9.9,1003.4,-99.9,29.2,2,-9.999,9,39.8
Kaiyo,9702,32,1997,1,26,14,57,7.156,169.397,362.87,2,-9.99,9,-99,-9.9,1003.3,-99.9,29.22,2,-9.999,9,39.8
Kaiyo,9702,33,1997,1,26,15,10,7.157,169.357,-9.99,9,373.5,2,-99,-9.9,1003.2,-99.9,29.22,2,-9.999,9,39.8
Kaiyo,9702,34,1997,1,26,15,22,7.157,169.318,-9.99,9,375.88,2,-99,-9.9,1003.2,-99.9,29.26,2,-9.999,9,39.9
Kaiyo,9702,35,1997,1,26,15,28,7.156,169.3,362.9,2,-9.99,9,-99,-9.9,1003.1,-99.9,29.25,2,-9.999,9,39.9
Kaiyo,9702,36,1997,1,26,15,57,7.153,169.212,363.13,2,-9.99,9,-99,-9.9,1003.1,-99.9,29.23,2,-9.999,9,39.8
Kaiyo,9702,37,1997,1,26,16,9,7.151,169.174,-9.99,9,372.1,2,-99,-9.9,1003.1,-99.9,29.21,2,-9.999,9,39.8
Kaiyo,9702,38,1997,1,26,16,22,7.15,169.136,-9.99,9,370.68,2,-99,-9.9,1003.1,-99.9,29.17,2,-9.999,9,39.7
Kaiyo,9702,39,1997,1,26,16,27,7.148,169.119,362.84,2,-9.99,9,-99,-9.9,1003.1,-99.9,29.15,2,-9.999,9,39.7
Kaiyo,9702,40,1997,1,26,16,40,7.146,169.082,-9.99,9,367.32,2,-99,-9.9,1003.2,-99.9,29.11,2,-9.999,9,39.6
Kaiyo,9702,41,1997,1,26,16,52,7.144,169.044,-9.99,9,367.47,2,-99,-9.9,1003.3,-99.9,29.16,2,-9.999,9,39.7
Kaiyo,9702,42,1997,1,26,16,58,7.143,169.027,362.85,2,-9.99,9,-99,-9.9,1003.3,-99.9,29.17,2,-9.999,9,39.7
Kaiyo,9702,43,1997,1,26,17,27,7.139,168.941,363.02,2,-9.99,9,-99,-9.9,1003.4,-99.9,29.15,2,-9.999,9,39.7
Kaiyo,9702,44,1997,1,26,17,39,7.137,168.902,-9.99,9,363.28,2,-99,-9.9,1003.4,-99.9,29.05,2,-9.999,9,39.4
Kaiyo,9702,45,1997,1,26,17,52,7.135,168.864,-9.99,9,360.94,2,-99,-9.9,1003.5,-99.9,28.99,2,-9.999,9,39.3
Kaiyo,9702,46,1997,1,26,17,57,7.134,168.847,362.88,2,-9.99,9,-99,-9.9,1003.5,-99.9,29.03,2,-9.999,9,39.4
Kaiyo,9702,47,1997,1,26,18,10,7.14,168.809,-9.99,9,361.39,2,-99,-9.9,1003.5,-99.9,29.05,2,-9.999,9,39.4
Kaiyo,9702,48,1997,1,26,18,22,7.147,168.772,-9.99,9,362.54,2,-99,-9.9,1003.4,-99.9,29.03,2,-9.999,9,39.4
Kaiyo,9702,49,1997,1,26,18,28,7.151,168.755,362.97,2,-9.99,9,-99,-9.9,1003.4,-99.9,29.04,2,-9.999,9,39.4
Kaiyo,9702,50,1997,1,26,18,57,7.169,168.67,363.5,2,-9.99,9,-99,-9.9,1003.5,-99.9,28.96,2,-9.999,9,39.2
Kaiyo,9702,51,1997,1,26,19,9,7.178,168.633,-9.99,9,358.95,2,-99,-9.9,1003.7,-99.9,28.96,2,-9.999,9,39.2
Kaiyo,9702,52,1997,1,26,19,22,7.187,168.595,-9.99,9,359.07,2,-99,-9.9,1004,-99.9,28.97,2,-9.999,9,39.3
Kaiyo,9702,53,1997,1,26,19,27,7.19,168.578,363.15,2,-9.99,9,-99,-9.9,1004.1,-99.9,28.99,2,-9.999,9,39.3
Kaiyo,9702,54,1997,1,26,19,40,7.199,168.54,-9.99,9,358.96,2,-99,-9.9,1004.2,-99.9,29.01,2,-9.999,9,39.3
Kaiyo,9702,55,1997,1,26,19,52,7.209,168.502,-9.99,9,359.74,2,-99,-9.9,1004.3,-99.9,29.03,2,-9.999,9,39.4
Kaiyo,9702,56,1997,1,26,19,58,7.213,168.485,362.92,2,-9.99,9,-99,-9.9,1004.5,-99.9,29.03,2,-9.999,9,39.4
Kaiyo,9702,57,1997,1,26,20,27,7.234,168.398,362.87,2,-9.99,9,-99,-9.9,1004.9,-99.9,29.02,2,-9.999,9,39.3
Kaiyo,9702,58,1997,1,26,20,39,7.243,168.36,-9.99,9,356.94,2,-99,-9.9,1004.9,-99.9,29.05,2,-9.999,9,39.4
Kaiyo,9702,59,1997,1,26,20,52,7.253,168.321,-9.99,9,356.98,2,-99,-9.9,1005.1,-99.9,29.03,2,-9.999,9,39.4
Kaiyo,9702,60,1997,1,26,20,57,7.257,168.303,362.59,2,-9.99,9,-99,-9.9,1005.3,-99.9,29.02,2,-9.999,9,39.3
Kaiyo,9702,61,1997,1,26,21,10,7.267,168.264,-9.99,9,356.35,2,-99,-9.9,1005.4,-99.9,29.06,2,-9.999,9,39.4
Kaiyo,9702,62,1997,1,26,21,22,7.276,168.225,-9.99,9,357.25,2,-99,-9.9,1005.5,-99.9,29.07,2,-9.999,9,39.5
Kaiyo,9702,63,1997,1,26,21,28,7.28,168.208,361.95,2,-9.99,9,-99,-9.9,1005.5,-99.9,29.06,2,-9.999,9,39.4
Kaiyo,9702,64,1997,1,26,21,57,7.303,168.117,363.55,2,-9.99,9,-99,-9.9,1005.5,-99.9,29.04,2,-9.999,9,39.4
Kaiyo,9702,65,1997,1,26,22,9,7.312,168.077,-9.99,9,358.66,2,-99,-9.9,1005.7,-99.9,29.06,2,-9.999,9,39.4
Kaiyo,9702,66,1997,1,26,22,22,7.321,168.036,-9.99,9,359.26,2,-99,-9.9,1005.6,-99.9,29.08,2,-9.999,9,39.5
Kaiyo,9702,67,1997,1,26,22,27,7.326,168.018,363.29,2,-9.99,9,-99,-9.9,1005.5,-99.9,29.06,2,-9.999,9,39.4
Kaiyo,9702,68,1997,1,26,22,40,7.334,167.977,-9.99,9,359.25,2,-99,-9.9,1005.6,-99.9,29.09,2,-9.999,9,39.5
Kaiyo,9702,69,1997,1,26,22,52,7.344,167.936,-9.99,9,359.85,2,-99,-9.9,1005.7,-99.9,29.09,2,-9.999,9,39.5
Kaiyo,9702,70,1997,1,26,22,58,7.348,167.918,363.08,2,-9.99,9,-99,-9.9,1005.6,-99.9,29.11,2,-9.999,9,39.6
Kaiyo,9702,71,1997,1,26,23,27,7.368,167.824,363.12,2,-9.99,9,-99,-9.9,1005.5,-99.9,29.15,2,-9.999,9,39.7
Kaiyo,9702,72,1997,1,26,23,39,7.377,167.784,-9.99,9,361.22,2,-99,-9.9,1005.4,-99.9,29.18,2,-9.999,9,39.7
Kaiyo,9702,73,1997,1,26,23,52,7.386,167.744,-9.99,9,362.11,2,-99,-9.9,1005.3,-99.9,29.19,2,-9.999,9,39.7
Kaiyo,9702,74,1997,1,26,23,57,7.39,167.726,362.9,2,-9.99,9,-99,-9.9,1005.2,-99.9,29.18,2,-9.999,9,39.7
Kaiyo,9702,75,1997,1,27,0,10,7.399,167.686,-9.99,9,361.34,2,-99,-9.9,1005.1,-99.9,29.12,2,-9.999,9,39.6
Kaiyo,9702,76,1997,1,27,0,22,7.407,167.645,-9.99,9,362.01,2,-99,-9.9,1005.1,-99.9,29.14,2,-9.999,9,39.6
Kaiyo,9702,77,1997,1,27,0,28,7.411,167.626,362.84,2,-9.99,9,-99,-9.9,1005,-99.9,29.12,2,-9.999,9,39.6
Kaiyo,9702,78,1997,1,27,0,57,7.43,167.538,363.35,2,-9.99,9,-99,-9.9,1004.5,-99.9,29.14,2,-9.999,9,39.6
Kaiyo,9702,79,1997,1,27,1,9,7.438,167.5,-9.99,9,362.4,2,-99,-9.9,1004.2,-99.9,29.16,2,-9.999,9,39.7
Kaiyo,9702,80,1997,1,27,1,22,7.446,167.462,-9.99,9,362.92,2,-99,-9.9,1003.9,-99.9,29.16,2,-9.999,9,39.7
Kaiyo,9702,81,1997,1,27,1,27,7.45,167.445,363.26,2,-9.99,9,-99,-9.9,1003.9,-99.9,29.17,2,-9.999,9,39.7
Kaiyo,9702,82,1997,1,27,1,40,7.458,167.409,-9.99,9,363.4,2,-99,-9.9,1003.7,-99.9,29.15,2,-9.999,9,39.7
Kaiyo,9702,83,1997,1,27,1,52,7.466,167.371,-9.99,9,363.85,2,-99,-9.9,1003.5,-99.9,29.13,2,-9.999,9,39.6
Kaiyo,9702,84,1997,1,27,1,58,7.47,167.354,363.28,2,-9.99,9,-99,-9.9,1003.4,-99.9,29.15,2,-9.999,9,39.7
Kaiyo,9702,85,1997,1,27,2,27,7.488,167.269,363.54,2,-9.99,9,-99,-9.9,1002.9,-99.9,29.23,2,-9.999,9,39.8
Kaiyo,9702,86,1997,1,27,2,39,7.496,167.231,-9.99,9,365.71,2,-99,-9.9,1002.7,-99.9,29.25,2,-9.999,9,39.9
Kaiyo,9702,87,1997,1,27,2,52,7.505,167.194,-9.99,9,366.76,2,-99,-9.9,1002.6,-99.9,29.25,2,-9.999,9,39.9
Kaiyo,9702,88,1997,1,27,2,57,7.509,167.178,363.09,2,-9.99,9,-99,-9.9,1002.5,-99.9,29.19,2,-9.999,9,39.7
Kaiyo,9702,89,1997,1,27,3,10,7.517,167.141,-9.99,9,366.51,2,-99,-9.9,1002.4,-99.9,29.27,2,-9.999,9,39.9
Kaiyo,9702,90,1997,1,27,3,22,7.525,167.104,-9.99,9,366.97,2,-99,-9.9,1002.3,-99.9,29.25,2,-9.999,9,39.9
Kaiyo,9702,91,1997,1,27,3,28,7.528,167.087,363.08,2,-9.99,9,-99,-9.9,1002.2,-99.9,29.24,2,-9.999,9,39.9
Kaiyo,9702,92,1997,1,27,3,57,7.546,167,363.7,2,-9.99,9,-99,-9.9,1002,-99.9,29.24,2,-9.999,9,39.9
Kaiyo,9702,93,1997,1,27,4,9,7.554,166.962,-9.99,9,366.65,2,-99,-9.9,1002.1,-99.9,29.23,2,-9.999,9,39.8
Kaiyo,9702,94,1997,1,27,4,22,7.562,166.923,-9.99,9,366.52,2,-99,-9.9,1002.1,-99.9,29.22,2,-9.999,9,39.8
Kaiyo,9702,95,1997,1,27,4,27,7.566,166.906,363.28,2,-9.99,9,-99,-9.9,1002,-99.9,29.25,2,-9.999,9,39.9
Kaiyo,9702,96,1997,1,27,4,40,7.576,166.867,-9.99,9,367.17,2,-99,-9.9,1002.3,-99.9,29.29,2,-9.999,9,40
Kaiyo,9702,97,1997,1,27,4,52,7.586,166.828,-9.99,9,368.14,2,-99,-9.9,1002.2,-99.9,29.33,2,-9.999,9,40.1
Kaiyo,9702,98,1997,1,27,4,58,7.59,166.81,363.16,2,-9.99,9,-99,-9.9,1002.2,-99.9,29.38,2,-9.999,9,40.2
Kaiyo,9702,99,1997,1,27,5,27,7.612,166.721,364.7,2,-9.99,9,-99,-9.9,1002.4,-99.9,29.28,2,-9.999,9,40
Kaiyo,9702,100,1997,1,27,5,39,7.622,166.683,-9.99,9,364.95,2,-99,-9.9,1002.4,-99.9,29.27,2,-9.999,9,39.9
Kaiyo,9702,101,1997,1,27,5,52,7.631,166.646,-9.99,9,365.89,2,-99,-9.9,1002.4,-99.9,29.32,2,-9.999,9,40
Kaiyo,9702,102,1997,1,27,5,57,7.635,166.629,363.33,2,-9.99,9,-99,-9.9,1002.5,-99.9,29.26,2,-9.999,9,39.9
Kaiyo,9702,103,1997,1,27,6,10,7.642,166.591,-9.99,9,365.37,2,-99,-9.9,1002.6,-99.9,29.25,2,-9.999,9,39.9
Kaiyo,9702,104,1997,1,27,6,22,7.65,166.555,-9.99,9,366.8,2,-99,-9.9,1002.8,-99.9,29.27,2,-9.999,9,39.9
Kaiyo,9702,105,1997,1,27,6,28,7.653,166.537,363.93,2,-9.99,9,-99,-9.9,1002.9,-99.9,29.28,2,-9.999,9,40
Kaiyo,9702,106,1997,1,27,6,57,7.674,166.454,363.44,2,-9.99,9,-99,-9.9,1003.1,-99.9,29.18,2,-9.999,9,39.7
Kaiyo,9702,107,1997,1,27,7,9,7.683,166.417,-9.99,9,361.08,2,-99,-9.9,1003.2,-99.9,29.14,2,-9.999,9,39.6
Kaiyo,9702,108,1997,1,27,7,22,7.692,166.381,-9.99,9,360.24,2,-99,-9.9,1003.4,-99.9,29.1,2,-9.999,9,39.5
Kaiyo,9702,109,1997,1,27,7,27,7.696,166.364,363.36,2,-9.99,9,-99,-9.9,1003.4,-99.9,29.09,2,-9.999,9,39.5
Kaiyo,9702,110,1997,1,27,7,40,7.706,166.329,-9.99,9,360.44,2,-99,-9.9,1003.6,-99.9,29.07,2,-9.999,9,39.5
Kaiyo,9702,111,1997,1,27,7,52,7.714,166.293,-9.99,9,360.33,2,-99,-9.9,1003.7,-99.9,29.06,2,-9.999,9,39.4
Kaiyo,9702,112,1997,1,27,7,58,7.718,166.277,363,2,-9.99,9,-99,-9.9,1003.8,-99.9,29.07,2,-9.999,9,39.5
Kaiyo,9702,113,1997,1,27,8,27,7.737,166.194,363.31,2,-9.99,9,-99,-9.9,1004.3,-99.9,29.08,2,-9.999,9,39.5
Kaiyo,9702,114,1997,1,27,8,39,7.745,166.158,-9.99,9,359.54,2,-99,-9.9,1004.5,-99.9,29.08,2,-9.999,9,39.5
Kaiyo,9702,115,1997,1,27,8,52,7.753,166.122,-9.99,9,360.5,2,-99,-9.9,1004.5,-99.9,29.11,2,-9.999,9,39.6
Kaiyo,9702,116,1997,1,27,8,57,7.756,166.106,363.19,2,-9.99,9,-99,-9.9,1004.7,-99.9,29.08,2,-9.999,9,39.5
Kaiyo,9702,117,1997,1,27,9,10,7.764,166.07,-9.99,9,360.75,2,-99,-9.9,1005.1,-99.9,29.11,2,-9.999,9,39.6
Kaiyo,9702,118,1997,1,27,9,22,7.771,166.035,-9.99,9,361.02,2,-99,-9.9,1005,-99.9,29.1,2,-9.999,9,39.5
Kaiyo,9702,119,1997,1,27,9,28,7.774,166.018,363.17,2,-9.99,9,-99,-9.9,1005,-99.9,29.11,2,-9.999,9,39.6
Kaiyo,9702,120,1997,1,27,9,57,7.791,165.935,363.29,2,-9.99,9,-99,-9.9,1005.2,-99.9,29.09,2,-9.999,9,39.5
Kaiyo,9702,121,1997,1,27,10,9,7.798,165.899,-9.99,9,360.8,2,-99,-9.9,1005.2,-99.9,29.18,2,-9.999,9,39.7
Kaiyo,9702,122,1997,1,27,10,22,7.806,165.864,-9.99,9,360.99,2,-99,-9.9,1005.5,-99.9,29.15,2,-9.999,9,39.7
Kaiyo,9702,123,1997,1,27,10,27,7.81,165.848,363.18,2,-9.99,9,-99,-9.9,1005.6,-99.9,29.19,2,-9.999,9,39.7
Kaiyo,9702,124,1997,1,27,10,40,7.817,165.812,-9.99,9,361.56,2,-99,-9.9,1005.4,-99.9,29.16,2,-9.999,9,39.7
Kaiyo,9702,125,1997,1,27,10,52,7.825,165.777,-9.99,9,361.92,2,-99,-9.9,1005.3,-99.9,29.17,2,-9.999,9,39.7
Kaiyo,9702,126,1997,1,27,10,58,7.829,165.761,363.11,2,-9.99,9,-99,-9.9,1005.4,-99.9,29.17,2,-9.999,9,39.7
Kaiyo,9702,127,1997,1,27,11,27,7.848,165.679,363.34,2,-9.99,9,-99,-9.9,1005.3,-99.9,29.19,2,-9.999,9,39.7
Kaiyo,9702,128,1997,1,27,11,39,7.857,165.643,-9.99,9,360.46,2,-99,-9.9,1005.5,-99.9,29.09,2,-9.999,9,39.5
Kaiyo,9702,129,1997,1,27,11,52,7.866,165.606,-9.99,9,360.33,2,-99,-9.9,1005.6,-99.9,29.1,2,-9.999,9,39.5
Kaiyo,9702,130,1997,1,27,11,57,7.871,165.589,363.24,2,-9.99,9,-99,-9.9,1005.5,-99.9,29.08,2,-9.999,9,39.5
Kaiyo,9702,131,1997,1,27,12,10,7.881,165.553,-9.99,9,361.51,2,-99,-9.9,1005.5,-99.9,29.13,2,-9.999,9,39.6
Kaiyo,9702,132,1997,1,27,12,22,7.89,165.516,-9.99,9,363.35,2,-99,-9.9,1005.5,-99.9,29.18,2,-9.999,9,39.7
Kaiyo,9702,133,1997,1,27,12,28,7.894,165.499,363.22,2,-9.99,9,-99,-9.9,1005.4,-99.9,29.19,2,-9.999,9,39.7
Kaiyo,9702,134,1997,1,27,12,57,7.913,165.415,363.32,2,-9.99,9,-99,-9.9,1005.3,-99.9,29.21,2,-9.999,9,39.8
Kaiyo,9702,135,1997,1,27,13,9,7.92,165.379,-9.99,9,365.04,2,-99,-9.9,1005.1,-99.9,29.15,2,-9.999,9,39.7
Kaiyo,9702,136,1997,1,27,13,22,7.928,165.342,-9.99,9,364.32,2,-99,-9.9,1005.1,-99.9,29.15,2,-9.999,9,39.7
Kaiyo,9702,137,1997,1,27,13,27,7.933,165.325,363.14,2,-9.99,9,-99,-9.9,1005,-99.9,29.18,2,-9.999,9,39.7
Kaiyo,9702,138,1997,1,27,13,40,7.941,165.289,-9.99,9,365.14,2,-99,-9.9,1005,-99.9,29.12,2,-9.999,9,39.6
Kaiyo,9702,139,1997,1,27,13,52,7.95,165.253,-9.99,9,365.82,2,-99,-9.9,1004.8,-99.9,29.15,2,-9.999,9,39.7
Kaiyo,9702,140,1997,1,27,13,58,7.954,165.237,363.15,2,-9.99,9,-99,-9.9,1004.8,-99.9,29.17,2,-9.999,9,39.7
Kaiyo,9702,141,1997,1,27,14,27,7.972,165.155,363.35,2,-9.99,9,-99,-9.9,1004.5,-99.9,29.07,2,-9.999,9,39.5
Kaiyo,9702,142,1997,1,27,14,39,7.98,165.119,-9.99,9,362.86,2,-99,-9.9,1004.3,-99.9,29.08,2,-9.999,9,39.5
Kaiyo,9702,143,1997,1,27,14,52,7.991,165.084,-9.99,9,362.92,2,-99,-9.9,1004.1,-99.9,29.06,2,-9.999,9,39.4
Kaiyo,9702,144,1997,1,27,14,57,7.997,165.069,363.19,2,-9.99,9,-99,-9.9,1004,-99.9,29.05,2,-9.999,9,39.4
Kaiyo,9702,145,1997,1,27,15,10,8.013,165.036,-9.99,9,362.7,2,-99,-9.9,1003.8,-99.9,29.05,2,-9.999,9,39.4
Kaiyo,9702,146,1997,1,27,15,22,8.021,165.007,-9.99,9,363.08,2,-99,-9.9,1003.8,-99.9,29.04,2,-9.999,9,39.4
Kaiyo,9702,147,1997,1,27,15,28,8.016,164.998,363.1,2,-9.99,9,-99,-9.9,1003.7,-99.9,29.09,2,-9.999,9,39.5
Kaiyo,9702,148,1997,1,27,15,57,8.001,164.978,363.22,2,-9.99,9,-99,-9.9,1003.7,-99.9,29.04,2,-9.999,9,39.4
Kaiyo,9702,149,1997,1,27,16,9,8.001,164.979,-9.99,9,367.11,2,-99,-9.9,1003.8,-99.9,29.03,2,-9.999,9,39.4
Kaiyo,9702,150,1997,1,27,16,22,8.001,164.978,-9.99,9,369.62,2,-99,-9.9,1003.9,-99.9,29.03,2,-9.999,9,39.4
Kaiyo,9702,151,1997,1,27,16,27,8.001,164.979,363.28,2,-9.99,9,-99,-9.9,1003.9,-99.9,29.03,2,-9.999,9,39.4
Kaiyo,9702,152,1997,1,27,16,40,8.001,164.979,-9.99,9,370.63,2,-99,-9.9,1003.8,-99.9,29.03,2,-9.999,9,39.4
Kaiyo,9702,153,1997,1,27,16,52,8.002,164.979,-9.99,9,369.47,2,-99,-9.9,1003.9,-99.9,29.02,2,-9.999,9,39.3
Kaiyo,9702,154,1997,1,27,16,58,8.003,164.978,363.1,2,-9.99,9,-99,-9.9,1004,-99.9,29.05,2,-9.999,9,39.4
Kaiyo,9702,155,1997,1,27,17,27,8.003,164.978,363.19,2,-9.99,9,-99,-9.9,1004,-99.9,29.02,2,-9.999,9,39.3
Kaiyo,9702,156,1997,1,27,17,39,8.004,164.977,-9.99,9,369.33,2,-99,-9.9,1004.1,-99.9,28.99,2,-9.999,9,39.3
Kaiyo,9702,157,1997,1,27,17,52,8.005,164.982,-9.99,9,365.87,2,-99,-9.9,1004.3,-99.9,29.01,2,-9.999,9,39.3
Kaiyo,9702,158,1997,1,27,17,57,8.006,164.983,363.01,2,-9.99,9,-99,-9.9,1004.3,-99.9,29.01,2,-9.999,9,39.3
Kaiyo,9702,159,1997,1,27,18,10,8.006,164.982,-9.99,9,368.88,2,-99,-9.9,1004.3,-99.9,29.01,2,-9.999,9,39.3
Kaiyo,9702,160,1997,1,27,18,22,8.008,164.983,-9.99,9,371.05,2,-99,-9.9,1004.5,-99.9,29,2,-9.999,9,39.3
Kaiyo,9702,161,1997,1,27,18,28,8.008,164.988,363.12,2,-9.99,9,-99,-9.9,1004.5,-99.9,29.02,2,-9.999,9,39.3
Kaiyo,9702,162,1997,1,27,18,57,8.009,164.998,363.22,2,-9.99,9,-99,-9.9,1004.8,-99.9,29.03,2,-9.999,9,39.4
Kaiyo,9702,163,1997,1,27,19,9,8.006,165.007,-9.99,9,365.18,2,-99,-9.9,1005.3,-99.9,29.01,2,-9.999,9,39.3
Kaiyo,9702,164,1997,1,27,19,22,8.008,165.012,-9.99,9,364.7,2,-99,-9.9,1005.4,-99.9,29.03,2,-9.999,9,39.4
Kaiyo,9702,165,1997,1,27,19,27,8.008,165.012,363.07,2,-9.99,9,-99,-9.9,1005.4,-99.9,29.03,2,-9.999,9,39.4
Kaiyo,9702,166,1997,1,27,19,40,8.008,165.014,-9.99,9,366.72,2,-99,-9.9,1005.4,-99.9,29.02,2,-9.999,9,39.3
Kaiyo,9702,167,1997,1,27,19,52,8.008,165.013,-9.99,9,367.58,2,-99,-9.9,1005.6,-99.9,29.03,2,-9.999,9,39.4
Kaiyo,9702,168,1997,1,27,19,58,8.014,165.013,363.05,2,-9.99,9,-99,-9.9,1005.7,-99.9,29.03,2,-9.999,9,39.4
Kaiyo,9702,169,1997,1,27,20,27,8.025,165.017,363.1,2,-9.99,9,-99,-9.9,1006.1,-99.9,29.06,2,-9.999,9,39.4
Kaiyo,9702,170,1997,1,27,20,39,8.026,165.019,-9.99,9,366.71,2,-99,-9.9,1006.4,-99.9,29.05,2,-9.999,9,39.4
Kaiyo,9702,171,1997,1,27,20,52,8.028,165.019,-9.99,9,370.97,2,-99,-9.9,1006.7,-99.9,29.07,2,-9.999,9,39.5
Kaiyo,9702,172,1997,1,27,20,57,8.028,165.02,363.04,2,-9.99,9,-99,-9.9,1006.8,-99.9,29.06,2,-9.999,9,39.4
Kaiyo,9702,173,1997,1,27,21,10,8.029,165.023,-9.99,9,368.13,2,-99,-9.9,1007,-99.9,29.07,2,-9.999,9,39.5
Kaiyo,9702,174,1997,1,27,21,22,8.005,165.011,-9.99,9,366.74,2,-99,-9.9,1007.2,-99.9,29.07,2,-9.999,9,39.5
Kaiyo,9702,175,1997,1,27,21,28,8.012,165.01,363.05,2,-9.99,9,-99,-9.9,1007.3,-99.9,29.04,2,-9.999,9,39.4
Kaiyo,9702,176,1997,1,27,21,57,7.939,165.011,363.14,2,-9.99,9,-99,-9.9,1007.1,-99.9,29.17,2,-9.999,9,39.7
Kaiyo,9702,177,1997,1,27,22,9,7.899,165.014,-9.99,9,367.44,2,-99,-9.9,1007.1,-99.9,29.21,2,-9.999,9,39.8
Kaiyo,9702,178,1997,1,27,22,22,7.859,165.015,-9.99,9,364.95,2,-99,-9.9,1007.3,-99.9,29.12,2,-9.999,9,39.6
Kaiyo,9702,179,1997,1,27,22,27,7.84,165.016,363.08,2,-9.99,9,-99,-9.9,1007.2,-99.9,29.14,2,-9.999,9,39.6
Kaiyo,9702,180,1997,1,27,22,40,7.8,165.017,-9.99,9,365.38,2,-99,-9.9,1007.2,-99.9,29.16,2,-9.999,9,39.7
Kaiyo,9702,181,1997,1,27,22,52,7.759,165.017,-9.99,9,366.39,2,-99,-9.9,1007.2,-99.9,29.15,2,-9.999,9,39.7
Kaiyo,9702,182,1997,1,27,22,58,7.74,165.016,363.08,2,-9.99,9,-99,-9.9,1007.2,-99.9,29.14,2,-9.999,9,39.6
Kaiyo,9702,183,1997,1,27,23,27,7.646,165.015,363.21,2,-9.99,9,-99,-9.9,1007,-99.9,29.19,2,-9.999,9,39.7
Kaiyo,9702,184,1997,1,27,23,39,7.604,165.016,-9.99,9,366.12,2,-99,-9.9,1006.9,-99.9,29.24,2,-9.999,9,39.9
Kaiyo,9702,185,1997,1,27,23,52,7.564,165.014,-9.99,9,365.42,2,-99,-9.9,1006.7,-99.9,29.19,2,-9.999,9,39.7
Kaiyo,9702,186,1997,1,27,23,57,7.545,165.013,363.12,2,-9.99,9,-99,-9.9,1006.7,-99.9,29.19,2,-9.999,9,39.7
Kaiyo,9702,187,1997,1,28,0,10,7.503,165.012,-9.99,9,366.36,2,-99,-9.9,1006.7,-99.9,29.18,2,-9.999,9,39.7
Kaiyo,9702,188,1997,1,28,0,22,7.463,165.011,-9.99,9,365.25,2,-99,-9.9,1006.7,-99.9,29.18,2,-9.999,9,39.7
Kaiyo,9702,189,1997,1,28,0,28,7.444,165.009,363.12,2,-9.99,9,-99,-9.9,1006.6,-99.9,29.18,2,-9.999,9,39.7
Kaiyo,9702,190,1997,1,28,0,57,7.349,165.006,363.29,2,-9.99,9,-99,-9.9,1006.4,-99.9,29.15,2,-9.999,9,39.7
Kaiyo,9702,191,1997,1,28,1,9,7.308,165.006,-9.99,9,366.21,2,-99,-9.9,1006.3,-99.9,29.12,2,-9.999,9,39.6
Kaiyo,9702,192,1997,1,28,1,22,7.267,165.006,-9.99,9,366.44,2,-99,-9.9,1006.2,-99.9,29.16,2,-9.999,9,39.7
Kaiyo,9702,193,1997,1,28,1,27,7.249,165.008,363.18,2,-9.99,9,-99,-9.9,1006.1,-99.9,29.17,2,-9.999,9,39.7
Kaiyo,9702,194,1997,1,28,1,40,7.208,165.007,-9.99,9,368.73,2,-99,-9.9,1005.7,-99.9,29.3,2,-9.999,9,40
Kaiyo,9702,195,1997,1,28,1,52,7.167,165.007,-9.99,9,372.23,2,-99,-9.9,1005.5,-99.9,29.33,2,-9.999,9,40.1
Kaiyo,9702,196,1997,1,28,1,58,7.148,165.006,363.22,2,-9.99,9,-99,-9.9,1005.5,-99.9,29.25,2,-9.999,9,39.9
Kaiyo,9702,197,1997,1,28,2,27,7.056,165.005,363.31,2,-9.99,9,-99,-9.9,1005,-99.9,29.21,2,-9.999,9,39.8
Kaiyo,9702,198,1997,1,28,2,39,7.018,165.002,-9.99,9,369.21,2,-99,-9.9,1004.9,-99.9,29.24,2,-9.999,9,39.9
Kaiyo,9702,199,1997,1,28,2,52,7,165,-9.99,9,371.99,2,-99,-9.9,1004.7,-99.9,29.37,2,-9.999,9,40.2
Kaiyo,9702,200,1997,1,28,2,57,7.001,165,363.69,2,-9.99,9,-99,-9.9,1004.6,-99.9,29.39,2,-9.999,9,40.2
Kaiyo,9702,201,1997,1,28,3,10,7.002,165,-9.99,9,372.98,2,-99,-9.9,1004.5,-99.9,29.36,2,-9.999,9,40.1
Kaiyo,9702,202,1997,1,28,3,22,7.002,164.999,-9.99,9,373.34,2,-99,-9.9,1004.4,-99.9,29.35,2,-9.999,9,40.1
Kaiyo,9702,203,1997,1,28,3,28,7.002,164.998,363.74,2,-9.99,9,-99,-9.9,1004.3,-99.9,29.34,2,-9.999,9,40.1
Kaiyo,9702,204,1997,1,28,3,57,6.994,164.999,363.25,2,-9.99,9,-99,-9.9,1004,-99.9,29.31,2,-9.999,9,40
Kaiyo,9702,205,1997,1,28,4,9,6.958,165.001,-9.99,9,371.4,2,-99,-9.9,1003.9,-99.9,29.39,2,-9.999,9,40.2
Kaiyo,9702,206,1997,1,28,4,22,6.919,165.003,-9.99,9,374.28,2,-99,-9.9,1003.9,-99.9,29.44,2,-9.999,9,40.3
Kaiyo,9702,207,1997,1,28,4,27,6.901,165.003,363.22,2,-9.99,9,-99,-9.9,1003.9,-99.9,29.42,2,-9.999,9,40.3
Kaiyo,9702,208,1997,1,28,4,40,6.86,165.005,-9.99,9,373.9,2,-99,-9.9,1004,-99.9,29.42,2,-9.999,9,40.3
Kaiyo,9702,209,1997,1,28,4,52,6.819,165.006,-9.99,9,373.97,2,-99,-9.9,1004,-99.9,29.39,2,-9.999,9,40.2
Kaiyo,9702,210,1997,1,28,4,58,6.8,165.006,363.2,2,-9.99,9,-99,-9.9,1003.9,-99.9,29.36,2,-9.999,9,40.1
Kaiyo,9702,211,1997,1,28,5,27,6.72,165.014,363.21,2,-9.99,9,-99,-9.9,1003.9,-99.9,29.4,2,-9.999,9,40.2
Kaiyo,9702,212,1997,1,28,5,39,6.704,165.011,-9.99,9,372.1,2,-99,-9.9,1004.1,-99.9,29.41,2,-9.999,9,40.3
Kaiyo,9702,213,1997,1,28,5,52,6.663,165.011,-9.99,9,370.96,2,-99,-9.9,1004.1,-99.9,29.34,2,-9.999,9,40.1
Kaiyo,9702,214,1997,1,28,5,57,6.645,165.01,363.12,2,-9.99,9,-99,-9.9,1004.2,-99.9,29.36,2,-9.999,9,40.1
Kaiyo,9702,215,1997,1,28,6,10,6.604,165.009,-9.99,9,372.81,2,-99,-9.9,1004.4,-99.9,29.42,2,-9.999,9,40.3
Kaiyo,9702,216,1997,1,28,6,22,6.564,165.008,-9.99,9,376,2,-99,-9.9,1004.5,-99.9,29.53,2,-9.999,9,40.5
Kaiyo,9702,217,1997,1,28,6,28,6.545,165.008,363.11,2,-9.99,9,-99,-9.9,1004.6,-99.9,29.58,2,-9.999,9,40.6
Kaiyo,9702,218,1997,1,28,6,57,6.452,165.005,363.22,2,-9.99,9,-99,-9.9,1004.9,-99.9,29.63,2,-9.999,9,40.8
Kaiyo,9702,219,1997,1,28,7,9,6.411,165.005,-9.99,9,373,2,-99,-9.9,1005,-99.9,29.6,2,-9.999,9,40.7
Kaiyo,9702,220,1997,1,28,7,22,6.37,165.004,-9.99,9,373.91,2,-99,-9.9,1005.1,-99.9,29.68,2,-9.999,9,40.9
Kaiyo,9702,221,1997,1,28,7,27,6.351,165.003,362.96,2,-9.99,9,-99,-9.9,1005.1,-99.9,29.73,2,-9.999,9,41